Weather History for Tucson Davis Monthan, AZ

Change the Weather History Date:

Thursday, March 28, 2013

  Actual Average Record
Temperature  
Mean Temperature 68 °F -  
Max Temperature 82 °F 73 °F 90 °F (1986)
Min Temperature 53 °F 47 °F 35 °F (1987)
Cooling Degree Days 2    
Growing Degree Days 18 (Base 50)    
Moisture  
Dew Point 22 °F    
Average Humidity 18    
Maximum Humidity 32    
Minimum Humidity 7    
Precipitation  
Precipitation 0.00 in - - ()
Sea Level Pressure  
Sea Level Pressure 29.97 in    
Wind  
Wind Speed 6 mph (SW)    
Max Wind Speed 13 mph    
Max Gust Speed -    
Visibility 10 miles    
Events      
Averages and records for this station are not official NWS values.
T = Trace of Precipitation, MM = Missing Value Source: NWS Daily Summary

Daily Weather History Graph

Daily Weather History Graph

Search for Another Location

Airport:

Trip Planner

Search our weather history database for the weather conditions in past years. The results will help you decide how hot, cold, wet, or windy it might be!

Date:

Astronomy

Mar. 28, 2013 Rise Set
Actual Time 6:16 AM MST 6:40 PM MST
Civil Twilight 5:52 AM MST 7:05 PM MST
Nautical Twilight 5:23 AM MST 7:34 PM MST
Astronomical Twilight 4:54 AM MST 8:03 PM MST
Moon 8:27 PM MST 6:53 AM MST
Length of Visible Light 13h 13m
Length of Day
12h 24m
Full, 98% of the Moon is Illuminated
Mar 28
Full
Apr 2
Last Quarter
Apr 10
New
Apr 18
First Quarter
Apr 25
Full

Hourly Weather History & Observations

Time (MST) Temp. Dew Point Humidity Pressure Visibility Wind Dir Wind Speed Gust Speed Precip Events Conditions
12:58 AM 60.4 °F 19.4 °F 20% 30.03 in 10.0 mi SSE 8.1 mph - N/A   Clear
1:58 AM 60.1 °F 20.1 °F 21% 30.03 in 10.0 mi South 4.6 mph - N/A   Clear
2:58 AM 57.6 °F 20.3 °F 24% 30.02 in 10.0 mi SE 5.8 mph - N/A   Clear
3:58 AM 55.9 °F 21.7 °F 27% 30.02 in 10.0 mi SSE 5.8 mph - N/A   Scattered Clouds
4:58 AM 56.5 °F 23.2 °F 28% 29.93 in 10.0 mi SE 5.8 mph - N/A   Clear
5:58 AM 53.6 °F 24.3 °F 32% 29.95 in 10.0 mi SE 8.1 mph - N/A   Clear
6:58 AM 55.6 °F 24.8 °F 30% 29.98 in 10.0 mi SE 8.1 mph - N/A   Clear
7:58 AM 63.7 °F 26.6 °F 25% 29.98 in 10.0 mi SE 8.1 mph - N/A   Clear
8:58 AM 68.5 °F 27.3 °F 21% 30.00 in 10.0 mi SSW 4.6 mph - N/A   Clear
9:58 AM 70.9 °F 28.2 °F 20% 30.00 in 10.0 mi WSW 2.3 mph - N/A   Clear
10:58 AM 75.4 °F 30.9 °F 20% 29.99 in 10.0 mi Variable 2.3 mph - N/A   Mostly Cloudy
11:58 AM 77.9 °F 27.1 °F 15% 29.98 in 10.0 mi Variable 4.6 mph - N/A   Scattered Clouds
12:58 PM 78.8 °F 27.9 °F 15% 29.96 in 10.0 mi NNW 5.8 mph - N/A   Partly Cloudy
1:58 PM 80.6 °F 23.9 °F 12% 29.93 in 10.0 mi WNW 8.1 mph - N/A   Clear
2:58 PM 82.2 °F 18.5 °F 9% 29.91 in 10.0 mi NW 5.8 mph - N/A   Clear
3:58 PM 82.8 °F 16.2 °F 8% 29.91 in 10.0 mi WNW 12.7 mph - N/A   Partly Cloudy
4:58 PM 81.7 °F 12.2 °F 7% 29.89 in 10.0 mi West 6.9 mph - N/A   Clear
5:58 PM 79.7 °F 16.5 °F 9% 29.91 in 10.0 mi WNW 5.8 mph - N/A   Partly Cloudy
6:58 PM 76.8 °F 16.7 °F 10% 29.94 in 10.0 mi West 4.6 mph - N/A   Clear
7:58 PM 74.3 °F 18.9 °F 12% 29.94 in 10.0 mi WNW 5.8 mph - N/A   Clear
8:58 PM 72.9 °F 19.8 °F 13% 29.96 in 10.0 mi West 9.2 mph - N/A   Clear
9:58 PM 70.5 °F 21.2 °F 16% 29.98 in 10.0 mi WNW 6.9 mph - N/A   Partly Cloudy
10:58 PM 66.4 °F 21.9 °F 18% 29.99 in 10.0 mi Calm Calm - N/A   Clear
11:58 PM 64.4 °F 23.0 °F 21% 29.99 in 10.0 mi South 6.9 mph - N/A   Clear